sat.trackr.live / text

‹ back to catalog

ONEWEB-0389

NORAD 50469 · 2021-132A

PAYLOAD ACTIVE UNKNOWN

§ Identity

Operator
Country
UK
Launch date
2021-12-27
Launch site
TYMSC
Launch vehicle
Mass (kg)
RCS (m²)

Purposes: comms

External: N2YO · Heavens-Above · Gunter

§ Orbital elements

Epoch: 2026-09-10T00:27:59.545152Z

Period
109.29 min
Inclination
87.9206°
Eccentricity
0.0002122
Mean motion
13.17648219 rev/d
Perigee alt
1,192.1 km
Apogee alt
1,195.3 km
Semi-major
7,571.9 km
B*
-9.1623e-5
RAAN
349.0189°
Arg perigee
105.0989°
Mean anomaly
255.0378°
Rev number
22,925

§ Raw data

ONEWEB-03891 50469U 21132A   26253.01943918 -.00000023  00000+0 -91623-4 0  99972 50469  87.9206 349.0189 0002122 105.0989 255.0378 13.17648219229253

JSON: /api/v1/satellites/50469 · /tle

For live sub-satellite position, see the globe view (requires WebGL).

§ Visibility from observer

Set your observer location to see the next 7 days of passes ≥ 10°. The values pass through the URL so the page stays shareable.

No JS? Fill the form by hand. The geolocation button needs JavaScript.